Location: Catstown
(52.4386°N, 7.2633°W)
Time: 01:26:14
(UTC+00:00)

NOSS 2-2 (D) - Pass Details

Date: 18 September 2020
Orbit: 469 x 1739 km, 63.3° (Epoch: 23 October)

Event Time Altitude Azimuth Distance (km) Brightness Sun altitude
Rises 21:09:59 0° 240° (WSW) 2,509 7.0 -22.7°
Reaches altitude 10° 21:12:00 10° 245° (WSW) 1,663 6.1 -23.0°
Maximum altitude 21:15:32 53° 324° (NW) 652 3.9 -23.4°
Drops below altitude 10° 21:19:46 10° 42° (NE) 1,990 6.1 -23.9°
Enters shadow 21:19:50 10° 42° (NE) 2,017 6.1 -23.9°
Exits shadow 21:22:15 - 47° (NE) 3,015 7.0 -24.2°
Sets 21:22:23 0° 47° (NE) 3,071 7.0 -24.2°
